TimeMDT,TemperatureF,Dew PointF,Humidity,Sea Level PressureIn,VisibilityMPH,Wind Direction,Wind SpeedMPH,Gust SpeedMPH,PrecipitationIn,Events,Conditions,WindDirDegrees,DateUTC
12:15 AM,60.8,28.4,29,30.01,10.0,Calm,Calm,-,N/A,,Clear,0,2012-10-07 06:15:00
12:35 AM,59.0,30.2,34,30.02,10.0,NW,3.5,-,N/A,,Clear,310,2012-10-07 06:35:00
12:55 AM,59.0,30.2,34,30.01,10.0,WNW,5.8,-,N/A,,Clear,300,2012-10-07 06:55:00
1:15 AM,60.8,30.2,31,30.02,10.0,NW,4.6,-,N/A,,Clear,310,2012-10-07 07:15:00
1:35 AM,60.8,32.0,34,30.02,10.0,WNW,3.5,-,N/A,,Clear,290,2012-10-07 07:35:00
1:55 AM,62.6,32.0,32,30.02,10.0,NW,3.5,-,N/A,,Clear,320,2012-10-07 07:55:00
2:15 AM,62.6,32.0,32,30.02,10.0,Calm,Calm,-,N/A,,Clear,0,2012-10-07 08:15:00
2:35 AM,60.8,32.0,34,30.02,10.0,Calm,Calm,-,N/A,,Clear,0,2012-10-07 08:35:00
2:55 AM,60.8,32.0,34,30.02,10.0,WSW,6.9,-,N/A,,Clear,240,2012-10-07 08:55:00
3:15 AM,60.8,32.0,34,30.01,10.0,SW,6.9,-,N/A,,Clear,230,2012-10-07 09:15:00
3:35 AM,60.8,30.2,31,30.01,10.0,Calm,Calm,-,N/A,,Clear,0,2012-10-07 09:35:00
3:55 AM,55.4,30.2,38,30.01,10.0,ESE,4.6,-,N/A,,Clear,110,2012-10-07 09:55:00
4:15 AM,55.4,30.2,38,30.02,10.0,SSE,5.8,-,N/A,,Clear,150,2012-10-07 10:15:00
4:35 AM,55.4,30.2,38,30.02,10.0,SSE,5.8,-,N/A,,Clear,160,2012-10-07 10:35:00
4:55 AM,55.4,32.0,41,30.02,10.0,South,6.9,-,N/A,,Clear,170,2012-10-07 10:55:00
5:15 AM,57.2,30.2,36,30.03,10.0,South,5.8,-,N/A,,Clear,170,2012-10-07 11:15:00
5:35 AM,59.0,32.0,36,30.03,10.0,South,4.6,-,N/A,,Clear,180,2012-10-07 11:35:00
5:55 AM,59.0,32.0,36,30.03,10.0,South,4.6,-,N/A,,Clear,190,2012-10-07 11:55:00
6:15 AM,59.0,32.0,36,30.03,10.0,South,6.9,-,N/A,,Clear,180,2012-10-07 12:15:00
6:35 AM,59.0,32.0,36,30.04,10.0,South,6.9,-,N/A,,Clear,190,2012-10-07 12:35:00
6:55 AM,59.0,30.2,34,30.04,10.0,South,6.9,-,N/A,,Clear,190,2012-10-07 12:55:00
7:15 AM,59.0,30.2,34,30.04,10.0,South,5.8,-,N/A,,Clear,180,2012-10-07 13:15:00
7:35 AM,59.0,30.2,34,30.06,10.0,South,6.9,-,N/A,,Clear,170,2012-10-07 13:35:00
7:55 AM,59.0,32.0,36,30.06,10.0,SSE,12.7,-,N/A,,Clear,160,2012-10-07 13:55:00
8:15 AM,60.8,39.2,45,30.07,10.0,SSE,13.8,17.3,N/A,,Clear,160,2012-10-07 14:15:00
8:35 AM,60.8,41.0,48,30.08,10.0,SSE,12.7,17.3,N/A,,Clear,160,2012-10-07 14:35:00
8:55 AM,62.6,42.8,48,30.09,10.0,SSE,17.3,20.7,N/A,,Clear,150,2012-10-07 14:55:00
9:15 AM,64.4,41.0,42,30.10,10.0,SE,18.4,25.3,N/A,,Clear,140,2012-10-07 15:15:00
9:35 AM,64.4,42.8,45,30.10,10.0,SE,18.4,24.2,N/A,,Clear,130,2012-10-07 15:35:00
9:55 AM,64.4,42.8,45,30.11,10.0,SE,19.6,-,N/A,,Clear,140,2012-10-07 15:55:00
10:15 AM,66.2,42.8,43,30.11,10.0,SE,17.3,23.0,N/A,,Clear,130,2012-10-07 16:15:00
10:35 AM,66.2,42.8,43,30.11,10.0,SE,18.4,23.0,N/A,,Clear,130,2012-10-07 16:35:00
10:55 AM,68.0,41.0,37,30.11,10.0,SE,15.0,25.3,N/A,,Clear,140,2012-10-07 16:55:00
11:35 AM,71.6,41.0,33,30.10,10.0,ESE,16.1,23.0,N/A,,Clear,120,2012-10-07 17:35:00
11:55 AM,71.6,41.0,33,30.10,10.0,SE,16.1,21.9,N/A,,Clear,130,2012-10-07 17:55:00
12:15 PM,71.6,39.2,31,30.09,10.0,SE,11.5,-,N/A,,Clear,140,2012-10-07 18:15:00
12:35 PM,73.4,39.2,29,30.08,10.0,ESE,11.5,-,N/A,,Clear,120,2012-10-07 18:35:00
12:55 PM,77.0,39.2,26,30.08,10.0,ESE,9.2,16.1,N/A,,Clear,120,2012-10-07 18:55:00
1:15 PM,77.0,37.4,24,30.07,10.0,SE,9.2,-,N/A,,Clear,130,2012-10-07 19:15:00
1:35 PM,77.0,37.4,24,30.06,10.0,SE,8.1,-,N/A,,Clear,140,2012-10-07 19:35:00
1:55 PM,78.8,37.4,23,30.04,10.0,ESE,5.8,-,N/A,,Clear,110,2012-10-07 19:55:00
2:15 PM,78.8,35.6,21,30.04,10.0,ESE,5.8,-,N/A,,Clear,120,2012-10-07 20:15:00
2:35 PM,78.8,35.6,21,30.03,10.0,NW,4.6,-,N/A,,Clear,310,2012-10-07 20:35:00
2:55 PM,78.8,35.6,21,30.02,10.0,NNW,3.5,-,N/A,,Clear,330,2012-10-07 20:55:00
3:15 PM,80.6,35.6,20,30.01,10.0,Calm,Calm,-,N/A,,Clear,0,2012-10-07 21:15:00
3:35 PM,80.6,33.8,18,30.00,10.0,NNE,4.6,-,N/A,,Clear,30,2012-10-07 21:35:00
3:55 PM,82.4,33.8,17,30.00,10.0,NW,6.9,-,N/A,,Clear,310,2012-10-07 21:55:00
4:15 PM,82.4,32.0,16,29.99,10.0,WSW,8.1,17.3,N/A,,Clear,250,2012-10-07 22:15:00
4:35 PM,82.4,32.0,16,29.99,10.0,NW,6.9,-,N/A,,Clear,310,2012-10-07 22:35:00
4:55 PM,82.4,32.0,16,29.99,10.0,West,5.8,9.2,N/A,,Clear,260,2012-10-07 22:55:00
5:15 PM,82.4,32.0,16,29.99,10.0,WNW,9.2,-,N/A,,Clear,290,2012-10-07 23:15:00
5:35 PM,82.4,32.0,16,29.98,10.0,WSW,6.9,-,N/A,,Clear,240,2012-10-07 23:35:00
5:55 PM,82.4,32.0,16,29.99,10.0,WNW,9.2,-,N/A,,Clear,290,2012-10-07 23:55:00
6:15 PM,80.6,32.0,17,29.99,10.0,NW,3.5,-,N/A,,Clear,320,2012-10-08 00:15:00
6:55 PM,77.0,32.0,19,29.99,10.0,NW,3.5,-,N/A,,Clear,310,2012-10-08 00:55:00
7:15 PM,75.2,32.0,21,30.00,10.0,Calm,Calm,-,N/A,,Clear,0,2012-10-08 01:15:00
7:35 PM,71.6,32.0,23,30.00,10.0,NW,3.5,-,N/A,,Clear,310,2012-10-08 01:35:00
7:55 PM,71.6,32.0,23,30.01,10.0,NW,5.8,-,N/A,,Clear,320,2012-10-08 01:55:00
8:15 PM,68.0,32.0,26,30.01,10.0,NW,3.5,-,N/A,,Clear,310,2012-10-08 02:15:00
8:35 PM,66.2,32.0,28,30.02,10.0,North,3.5,-,N/A,,Clear,350,2012-10-08 02:35:00
8:55 PM,66.2,32.0,28,30.02,10.0,NW,3.5,-,N/A,,Clear,320,2012-10-08 02:55:00
9:15 PM,64.4,32.0,30,30.03,10.0,South,3.5,-,N/A,,Clear,180,2012-10-08 03:15:00
9:35 PM,64.4,30.2,28,30.04,10.0,South,4.6,-,N/A,,Clear,170,2012-10-08 03:35:00
9:55 PM,64.4,32.0,30,30.04,10.0,South,5.8,-,N/A,,Clear,180,2012-10-08 03:55:00
10:15 PM,66.2,32.0,28,30.04,10.0,South,3.5,-,N/A,,Clear,170,2012-10-08 04:15:00
10:35 PM,64.4,32.0,30,30.04,10.0,ESE,3.5,-,N/A,,Clear,120,2012-10-08 04:35:00
10:55 PM,62.6,32.0,32,30.05,10.0,SSE,5.8,-,N/A,,Clear,150,2012-10-08 04:55:00
11:15 PM,60.8,32.0,34,30.05,10.0,SSE,5.8,-,N/A,,Clear,150,2012-10-08 05:15:00
11:35 PM,60.8,33.8,36,30.06,10.0,South,5.8,-,N/A,,Clear,170,2012-10-08 05:35:00
11:55 PM,60.8,33.8,36,30.06,10.0,SSE,5.8,-,N/A,,Clear,160,2012-10-08 05:55:00